[[{"header":{"parameterUnit":"m.s-1","parameterCategory":2,"la1":30.2991,"la2":30.254,"lo1":-89.0895,"lo2":-89.0444,"dy":0.0017,"dx":0.0017,"nx":28,"ny":28,"refTime":"2024-03-16T03:00:00:Z","depth":"0","parameterNumber":2,"parameterNumberName":"U-component_of_CURRENTS"},"data":[0,0,0,0,0,0,0,0,0,0,0,0,0,0,0,0,0,0,0,0,0,0,0,0,0,0,0,0,0,0,0,0,0,0,0,0,0,0,0,0,0,0,0,0,0,0,0,0,0,0,0,0,0,0,0,0,0,0,-0.2398,-0.2398,0,-0.2421,-0.2421,-0.2421,-0.2396,-0.2395,-0.2394,-0.2394,-0.2356,-0.2356,-0.2355,0,0,0,0,0,0,0,0,0,0,0,0,0,-0.2308,-0.231,-0.2398,-0.2398,-0.2399,-0.2421,-0.2421,-0.2421,-0.2396,-0.2395,-0.2394,-0.2393,-0.2356,-0.2356,-0.2355,0,0,0,0,0,0,0,0,0,0,0,0,0,-0.2339,-0.231,-0.2398,-0.239,-0.239,-0.2421,-0.2421,-0.2421,-0.2396,-0.2395,-0.2394,-0.2393,-0.2356,-0.2356,-0.2355,-0.2377,0,0,-0.2354,-0.2354,0,0,0,0,0,0,0,0,-0.2337,-0.2342,-0.2391,-0.2391,-0.239,-0.2406,-0.2376,-0.2404,-0.2397,-0.2392,-0.2394,-0.2392,-0.2369,-0.2368,-0.2373,-0.2375,-0.2374,-0.2354,-0.2354,-0.2354,-0.2354,0,0,0,0,0,0,0,-0.2335,-0.2341,-0.2405,-0.2391,-0.2391,-0.2378,-0.2381,-0.2381,-0.2384,-0.2392,-0.2391,-0.2397,-0.2368,-0.2373,-0.2372,-0.2373,-0.2354,-0.2354,-0.2353,-0.2353,-0.2381,-0.2382,0,0,0,0,0,0,-0.2339,-0.2339,-0.2404,-0.2406,-0.2362,-0.2381,-0.2384,-0.2401,-0.2386,-0.2383,-0.2398,-0.2396,-0.2375,-0.2372,-0.237,-0.2396,-0.2354,-0.2353,-0.2353,-0.238,-0.2381,-0.2382,0,0,0,0,0,0,-0.2337,-0.2345,-0.2403,-0.2373,-0.238,-0.2384,-0.2403,-0.2402,-0.2402,-0.2391,-0.2387,-0.2398,-0.2374,-0.2371,-0.2379,-0.2394,-0.2353,-0.2353,-0.2379,-0.238,-0.2381,-0.2447,0,0,0,0,0,0,-0.2335,-0.2345,-0.2348,-0.2375,-0.2382,-0.2422,-0.2404,-0.2403,-0.2409,-0.2406,-0.239,-0.2386,-0.2372,-0.238,-0.2379,-0.2393,-0.2352,-0.2377,-0.2379,-0.2381,-0.2443,-0.245,-0.2456,0,0,0,0,0,-0.2332,-0.2342,-0.2348,-0.2356,-0.2391,-0.2423,-0.2425,-0.2421,-0.241,-0.2416,-0.2412,-0.2386,-0.239,-0.2381,-0.2379,-0.2393,-0.2376,-0.2379,-0.2381,-0.244,-0.2449,-0.2456,0,0,0,0,0,0,-0.2295,-0.2342,-0.2349,-0.237,-0.2395,-0.2419,-0.2421,-0.2425,-0.2428,-0.242,-0.2405,-0.2402,-0.2412,-0.2397,-0.2387,-0.2406,-0.2376,-0.2378,-0.2422,-0.243,-0.2436,-0.2442,-0.2352,0,0,0,0,0,-0.2294,-0.2317,-0.2357,-0.2371,-0.2388,-0.2407,-0.2415,-0.242,-0.2432,-0.2431,-0.2424,-0.2417,-0.2423,-0.2421,-0.2418,-0.2434,-0.2409,-0.2439,-0.2446,-0.2451,-0.2455,-0.2443,-0.2449,-0.2389,-0.2389,-0.2389,0,0,-0.2279,-0.231,-0.2319,-0.2366,-0.2384,-0.2417,-0.2408,-0.2429,-0.2452,-0.2427,-0.2444,-0.2439,-0.2432,-0.245,-0.2452,-0.2437,-0.2454,-0.2454,-0.2459,-0.246,-0.2446,-0.2452,-0.2457,-0.239,-0.239,-0.239,0,0,-0.2273,-0.2297,-0.232,-0.2353,-0.2393,-0.2413,-0.2422,-0.2453,-0.246,-0.2486,-0.2475,-0.249,-0.2485,-0.2497,-0.2499,-0.2542,-0.2489,-0.2525,-0.2563,-0.2552,-0.2557,-0.2561,-0.2531,-0.2531,-0.2528,-0.2528,-0.2528,0,-0.2251,-0.2293,-0.2327,-0.2366,-0.2396,-0.2416,-0.2452,-0.2471,-0.2497,-0.2514,-0.2494,-0.2517,-0.2515,-0.255,-0.2565,-0.2558,-0.2525,-0.2536,-0.256,-0.2564,-0.2567,-0.2535,-0.2535,-0.2532,-0.2531,-0.2531,-0.2531,0,-0.2273,-0.2308,-0.2326,-0.2389,-0.2425,-0.2456,-0.2504,-0.2529,-0.2539,-0.2557,-0.2586,-0.2588,-0.2601,-0.2604,-0.2599,-0.2623,-0.2583,-0.257,-0.2541,-0.2577,-0.2541,-0.2539,-0.2537,-0.2535,-0.2534,-0.2534,0,0,-0.2225,-0.232,-0.2328,-0.237,-0.2443,-0.248,-0.2531,-0.2588,-0.2622,-0.2633,-0.2661,-0.2691,-0.2682,-0.2685,-0.2677,-0.2673,-0.2673,-0.2628,-0.2626,-0.2598,-0.2621,-0.2569,-0.2562,-0.265,-0.2651,-0.2651,-0.2585,0,-0.2229,-0.2303,-0.2355,-0.2427,-0.2472,-0.253,-0.2583,-0.2638,-0.2666,-0.2695,-0.2704,-0.2723,-0.2714,-0.2716,-0.2715,-0.2677,-0.2672,-0.2691,-0.259,-0.2587,-0.2537,-0.2561,-0.2432,-0.236,-0.2583,-0.2583,-0.2583,0,-0.2235,-0.229,-0.2354,-0.2468,-0.2495,-0.2538,-0.2635,-0.2686,-0.274,-0.2759,-0.2779,-0.2771,-0.2781,-0.2756,-0.272,-0.2721,-0.2682,-0.265,-0.2647,-0.2575,-0.2534,-0.2361,-0.2348,-0.2308,-0.258,-0.2581,-0.2581,0,-0.2186,-0.2297,-0.2346,-0.2383,-0.2501,-0.2545,-0.261,-0.2694,-0.274,-0.2786,-0.2793,-0.2809,-0.2785,-0.2758,-0.2707,-0.2702,-0.264,-0.2628,-0.2549,-0.2544,-0.2405,-0.2387,-0.2341,-0.2609,-0.2609,-0.2609,-0.261,0,-0.2171,-0.2217,-0.2328,-0.2349,-0.244,-0.2528,-0.2604,-0.268,-0.2743,-0.2761,-0.2808,-0.2791,-0.2777,-0.274,-0.2705,-0.2616,-0.2642,-0.2557,-0.2529,-0.2423,-0.2409,-0.2343,-0.2369,-0.2607,-0.2607,-0.2608,-0.2608,0,-0.2109,-0.2171,-0.2246,-0.2366,-0.2411,-0.2477,-0.2605,-0.2648,-0.2718,-0.2729,-0.2735,-0.2759,-0.2709,-0.2701,-0.264,-0.2593,-0.2484,-0.2506,-0.2377,-0.2336,-0.2221,-0.2256,-0.2202,-0.2143,-0.2396,-0.2394,-0.2393,0,-0.2088,-0.2108,-0.224,-0.2286,-0.2337,-0.2439,-0.2498,-0.2619,-0.2643,-0.2682,-0.2658,-0.2648,-0.2605,-0.2532,-0.246,-0.2401,-0.241,-0.2253,-0.2244,-0.22,-0.2218,-0.225,-0.2206,-0.2076,-0.2072,-0.2069,-0.2066,0,-0.2044,-0.2077,-0.2132,-0.2219,-0.229,-0.2373,-0.2447,-0.2458,-0.2538,-0.2541,-0.2497,-0.2477,-0.2424,-0.2299,-0.2261,-0.2211,-0.2187,-0.2187,-0.2167,-0.1992,-0.1996,-0.1928,-0.2134,-0.2038,-0.2041,-0.2043,-0.2044,-0.2046,-0.2001,-0.2029,-0.2076,-0.2156,-0.2226,-0.2242,-0.2227,-0.2272,-0.227,-0.2208,-0.2278,-0.2208,-0.2152,-0.2073,-0.2023,-0.189,-0.1986,-0.1823,-0.1875,-0.1915,-0.1848,-0.1998,-0.1865,-0.1866,-0.1868,-0.1869,-0.187,0,-0.1941,-0.1958,-0.2014,-0.2067,-0.206,-0.2138,-0.2137,-0.2061,-0.1963,-0.1992,-0.1945,-0.1898,-0.1793,-0.1777,-0.167,-0.1591,-0.1555,-0.1567,-0.1566,-0.154,-0.1663,-0.1638,-0.1417,-0.1417,-0.1417,-0.1417,-0.1417,-0.1418,-0.1902,-0.19,-0.1917,-0.1872,-0.1885,-0.1792,-0.1736,-0.165,-0.1623,-0.1532,-0.1535,-0.1605,-0.1604,-0.1663,-0.1529,-0.1445,-0.1419,-0.1377,-0.1436,-0.151,-0.1537,-0.1564,-0.1543,-0.1306,-0.1307,-0.1215,-0.1214,-0.1214]},{"header":{"parameterUnit":"m.s-1","parameterCategory":2,"la1":30.2991,"la2":30.254,"lo1":-89.0895,"lo2":-89.0444,"dy":0.0017,"dx":0.0017,"nx":28,"ny":28,"refTime":"2024-03-16T03:00:00:Z","depth":"0","parameterNumber":3,"parameterNumberName":"V-component_of_CURRENTS"},"data":[0,0,0,0,0,0,0,0,0,0,0,0,0,0,0,0,0,0,0,0,0,0,0,0,0,0,0,0,0,0,0,0,0,0,0,0,0,0,0,0,0,0,0,0,0,0,0,0,0,0,0,0,0,0,0,0,0,0,-0.046,-0.0459,0,-0.0354,-0.0353,-0.0352,-0.0299,-0.0299,-0.0299,-0.0299,-0.0173,-0.017,-0.0167,0,0,0,0,0,0,0,0,0,0,0,0,0,-0.0567,-0.0565,-0.046,-0.0458,-0.0457,-0.0355,-0.0353,-0.0352,-0.0299,-0.0299,-0.0299,-0.0298,-0.0174,-0.0171,-0.0167,0,0,0,0,0,0,0,0,0,0,0,0,0,-0.0498,-0.0565,-0.046,-0.0417,-0.0412,-0.0355,-0.0353,-0.0352,-0.0299,-0.0299,-0.0299,-0.0298,-0.0176,-0.0171,-0.0166,-0.0141,0,0,-0.0152,-0.015,0,0,0,0,0,0,0,0,-0.0502,-0.0494,-0.0425,-0.042,-0.0415,-0.0339,-0.0345,-0.028,-0.0299,-0.0343,-0.0299,-0.0298,-0.0226,-0.0217,-0.02,-0.0135,-0.013,-0.0151,-0.0148,-0.0146,-0.0145,0,0,0,0,0,0,0,-0.0507,-0.0498,-0.0419,-0.0424,-0.0417,-0.0387,-0.0377,-0.0332,-0.0288,-0.0339,-0.0335,-0.0322,-0.0223,-0.0205,-0.0196,-0.0128,-0.0151,-0.0147,-0.0144,-0.0142,-0.0015,-0.0014,0,0,0,0,0,0,-0.052,-0.0503,-0.0423,-0.0416,-0.0457,-0.0385,-0.0375,-0.0364,-0.0288,-0.0277,-0.0322,-0.0319,-0.0213,-0.0202,-0.0192,-0.0161,-0.0146,-0.0142,-0.0139,-0.0015,-0.0015,-0.0014,0,0,0,0,0,0,-0.0523,-0.0514,-0.0427,-0.0456,-0.0443,-0.0384,-0.0372,-0.0362,-0.0342,-0.0275,-0.0263,-0.0312,-0.0212,-0.0199,-0.0154,-0.0155,-0.014,-0.0135,-0.0016,-0.0015,-0.0014,-0.0096,0,0,0,0,0,0,-0.0527,-0.0516,-0.0515,-0.0457,-0.0441,-0.0398,-0.0372,-0.036,-0.0334,-0.033,-0.0263,-0.0251,-0.0211,-0.0162,-0.015,-0.0148,-0.0132,-0.0016,-0.0015,-0.0015,-0.0094,-0.0098,-0.0101,0,0,0,0,0,-0.0531,-0.0534,-0.0516,-0.0506,-0.0441,-0.0398,-0.0387,-0.0345,-0.0334,-0.0327,-0.0283,-0.0253,-0.0147,-0.0158,-0.0143,-0.0141,-0.0017,-0.0016,-0.0015,-0.0092,-0.0097,-0.0101,0,0,0,0,0,0,-0.058,-0.0527,-0.0506,-0.0492,-0.045,-0.0389,-0.038,-0.035,-0.031,-0.0308,-0.0249,-0.0234,-0.0195,-0.0153,-0.0167,-0.0098,-0.0075,-0.0071,-0.0139,-0.0143,-0.0147,-0.0166,-0.0128,0,0,0,0,0,-0.0591,-0.058,-0.052,-0.0511,-0.0493,-0.0438,-0.0416,-0.0385,-0.034,-0.0323,-0.0275,-0.0223,-0.0178,-0.0151,-0.0104,-0.0069,-0.0023,-0.0054,-0.0058,-0.0062,-0.0066,0.0001,0.0003,-0.001,-0.001,-0.001,0,0,-0.061,-0.0577,-0.0573,-0.0521,-0.0487,-0.0468,-0.0425,-0.0396,-0.0381,-0.0315,-0.0286,-0.0236,-0.0171,-0.0133,-0.0111,-0.01,-0.0034,-0.0061,-0.0065,-0.0066,0.0003,0.0004,0.0005,-0.001,-0.001,-0.001,0,0,-0.0643,-0.0612,-0.0614,-0.0582,-0.0531,-0.0495,-0.0489,-0.0429,-0.0404,-0.0366,-0.0316,-0.0269,-0.0199,-0.0154,-0.0122,-0.0116,-0.0059,-0.0097,-0.0131,-0.0066,-0.0065,-0.0063,-0.0011,-0.0004,-0.0097,-0.0098,-0.0098,0,-0.0668,-0.0659,-0.0608,-0.0598,-0.0583,-0.0513,-0.0513,-0.0473,-0.0406,-0.0386,-0.0368,-0.026,-0.021,-0.0158,-0.0158,-0.0127,-0.0082,-0.0125,-0.0073,-0.0071,-0.0068,-0.0014,-0.0005,-0.0101,-0.0101,-0.01,-0.01,0,-0.0695,-0.069,-0.069,-0.0657,-0.0632,-0.0621,-0.056,-0.0531,-0.0493,-0.0447,-0.0389,-0.0316,-0.0252,-0.0226,-0.0193,-0.0144,-0.0117,-0.0091,-0.007,-0.0072,-0.0014,-0.0004,-0.0107,-0.0105,-0.0104,-0.0103,0,0,-0.0747,-0.0719,-0.0717,-0.0726,-0.0666,-0.0655,-0.0624,-0.0578,-0.0561,-0.0488,-0.0456,-0.0378,-0.0329,-0.0289,-0.023,-0.0175,-0.0121,-0.0132,-0.0126,-0.0094,0.0018,0.0056,0.0072,-0.0085,-0.0083,-0.0082,0.0046,0,-0.0786,-0.0803,-0.0767,-0.0787,-0.0795,-0.0731,-0.0711,-0.0657,-0.0599,-0.0545,-0.0454,-0.0404,-0.0354,-0.0326,-0.026,-0.0146,-0.0095,-0.0159,0.0028,0.0034,0.0056,0.0084,0.0112,0.0231,0.0057,0.0059,0.006,0,-0.082,-0.083,-0.086,-0.0865,-0.0862,-0.0857,-0.0819,-0.0792,-0.0689,-0.0641,-0.0559,-0.048,-0.038,-0.0344,-0.016,-0.02,-0.0106,-0.0023,-0.0016,0.0056,0.0092,0.0209,0.0257,0.0409,0.0077,0.0075,0.0074,0,-0.0885,-0.0899,-0.0935,-0.0933,-0.0914,-0.0917,-0.0903,-0.0822,-0.08,-0.0698,-0.0656,-0.0525,-0.0448,-0.0312,-0.0137,-0.0146,0.0068,0.0083,0.0202,0.0206,0.0285,0.0293,0.0491,0.0195,0.0195,0.0195,0.0194,0,-0.0938,-0.0969,-0.0975,-0.0991,-0.1044,-0.0996,-0.1011,-0.0968,-0.0885,-0.0843,-0.0716,-0.0645,-0.0435,-0.0283,-0.0142,0.0074,0.007,0.0205,0.0248,0.0257,0.0261,0.0442,0.0496,0.02,0.0198,0.0198,0.0197,0,-0.0997,-0.0996,-0.1052,-0.1062,-0.1074,-0.1113,-0.1103,-0.1096,-0.1006,-0.0939,-0.0911,-0.0718,-0.0508,-0.03,-0.0056,0.0075,0.0364,0.0328,0.0319,0.0359,0.0605,0.0653,0.088,0.0979,0.0488,0.049,0.0491,0,-0.1033,-0.106,-0.1119,-0.1165,-0.1177,-0.1218,-0.1231,-0.117,-0.1137,-0.0978,-0.0938,-0.0731,-0.0557,-0.0183,0.0081,0.035,0.0456,0.0516,0.0504,0.0636,0.0721,0.0745,0.0813,0.0578,0.058,0.0582,0.0583,0,-0.1101,-0.1116,-0.1162,-0.1255,-0.1304,-0.135,-0.1349,-0.1331,-0.1218,-0.1129,-0.0963,-0.082,-0.0443,-0.0101,0.0248,0.0401,0.0635,0.0559,0.0715,0.0826,0.0849,0.0958,0.0464,0.0599,0.0597,0.0596,0.0595,0.0595,-0.115,-0.1211,-0.1264,-0.1356,-0.1416,-0.1442,-0.1441,-0.1394,-0.1323,-0.1137,-0.1003,-0.0745,-0.0262,0.0249,0.0441,0.0834,0.0787,0.0934,0.0985,0.1,0.1087,0.0617,0.0784,0.0784,0.0783,0.0783,0.0783,0,-0.1203,-0.1266,-0.1358,-0.1446,-0.1509,-0.1516,-0.1487,-0.1429,-0.1319,-0.114,-0.0962,-0.0432,0.0039,0.0484,0.1041,0.125,0.1296,0.1338,0.139,0.1444,0.1057,0.1053,0.1263,0.1263,0.1263,0.1263,0.1263,0.1263,-0.1226,-0.1326,-0.1376,-0.1502,-0.155,-0.1561,-0.1526,-0.1419,-0.1267,-0.0942,-0.0642,-0.041,0.0226,0.1098,0.1605,0.1644,0.1827,0.1788,0.1898,0.1633,0.1599,0.1566,0.1578,0.1895,0.1896,0.227,0.2274,0.2277]}],[{"header":{"parameterUnit":"m.s-1","parameterCategory":2,"la1":30.2991,"la2":30.254,"lo1":-89.0895,"lo2":-89.0444,"dy":0.0017,"dx":0.0017,"nx":28,"ny":28,"refTime":"2024-03-16T03:00:00:Z","depth":"2","parameterNumber":2,"parameterNumberName":"U-component_of_CURRENTS"},"data":[0,0,0,0,0,0,0,0,0,0,0,0,0,0,0,0,0,0,0,0,0,0,0,0,0,0,0,0,0,0,0,0,0,0,0,0,0,0,0,0,0,0,0,0,0,0,0,0,0,0,0,0,0,0,0,0,0,0,-0.1861,-0.1862,0,-0.1916,-0.1916,-0.1917,-0.1927,-0.1926,-0.1925,-0.1925,-0.1933,-0.1934,-0.1935,0,0,0,0,0,0,0,0,0,0,0,0,0,-0.1835,-0.1835,-0.1861,-0.1862,-0.1862,-0.1915,-0.1916,-0.1917,-0.1927,-0.1926,-0.1925,-0.1925,-0.1933,-0.1934,-0.1935,0,0,0,0,0,0,0,0,0,0,0,0,0,-0.1865,-0.1835,-0.1861,-0.1872,-0.1874,-0.1915,-0.1916,-0.1917,-0.1927,-0.1926,-0.1925,-0.1924,-0.1932,-0.1934,-0.1935,-0.196,0,0,-0.1938,-0.1939,0,0,0,0,0,0,0,0,-0.1863,-0.1866,-0.187,-0.1872,-0.1873,-0.1912,-0.191,-0.1929,-0.1927,-0.1908,-0.1925,-0.1924,-0.1921,-0.1923,-0.1938,-0.196,-0.196,-0.1938,-0.1939,-0.194,-0.194,0,0,0,0,0,0,0,-0.1861,-0.1864,-0.1884,-0.1871,-0.1873,-0.1898,-0.1901,-0.1914,-0.1919,-0.191,-0.191,-0.1914,-0.1922,-0.1937,-0.1938,-0.196,-0.1938,-0.1939,-0.194,-0.1941,-0.2004,-0.2005,0,0,0,0,0,0,-0.1849,-0.1862,-0.1883,-0.1886,-0.1864,-0.1899,-0.1902,-0.1902,-0.192,-0.1922,-0.1915,-0.1914,-0.1936,-0.1937,-0.1939,-0.1972,-0.194,-0.1941,-0.1941,-0.2003,-0.2005,-0.2006,0,0,0,0,0,0,-0.1848,-0.185,-0.188,-0.1874,-0.188,-0.19,-0.19,-0.1903,-0.1922,-0.1924,-0.1926,-0.193,-0.1935,-0.1937,-0.1947,-0.1972,-0.1941,-0.1942,-0.2002,-0.2004,-0.2005,-0.2037,0,0,0,0,0,0,-0.1847,-0.1849,-0.1848,-0.1873,-0.1879,-0.1906,-0.19,-0.1905,-0.1925,-0.1925,-0.1937,-0.1937,-0.1935,-0.1945,-0.1948,-0.1973,-0.1943,-0.2001,-0.2003,-0.2005,-0.2035,-0.2039,-0.2044,0,0,0,0,0,-0.1846,-0.1844,-0.1847,-0.185,-0.1876,-0.1906,-0.1913,-0.1925,-0.1926,-0.1939,-0.194,-0.1937,-0.196,-0.1947,-0.195,-0.1976,-0.2,-0.2002,-0.2004,-0.2033,-0.2039,-0.2043,0,0,0,0,0,0,-0.182,-0.1846,-0.185,-0.1852,-0.1878,-0.1907,-0.192,-0.1932,-0.1948,-0.1945,-0.1946,-0.1946,-0.197,-0.1967,-0.1953,-0.2,-0.1982,-0.1985,-0.2002,-0.2008,-0.2012,-0.2021,-0.1944,0,0,0,0,0,-0.1817,-0.1832,-0.1855,-0.186,-0.1872,-0.19,-0.1915,-0.1926,-0.1942,-0.1949,-0.196,-0.197,-0.1985,-0.1988,-0.2003,-0.2023,-0.2018,-0.2043,-0.2048,-0.2052,-0.2062,-0.2066,-0.2071,-0.2013,-0.2013,-0.2013,0,0,-0.1807,-0.1825,-0.1831,-0.1858,-0.1879,-0.1906,-0.1907,-0.1933,-0.1959,-0.1946,-0.1983,-0.199,-0.1995,-0.2021,-0.2031,-0.2017,-0.2066,-0.2054,-0.2057,-0.2066,-0.2069,-0.2074,-0.2079,-0.2015,-0.2014,-0.2014,0,0,-0.1805,-0.1814,-0.1829,-0.1856,-0.189,-0.1912,-0.1921,-0.1957,-0.1976,-0.2008,-0.2008,-0.2026,-0.2051,-0.2061,-0.2067,-0.2106,-0.2093,-0.2112,-0.2137,-0.214,-0.2145,-0.2149,-0.2147,-0.2151,-0.2108,-0.2108,-0.2108,0,-0.1794,-0.1813,-0.1838,-0.1865,-0.1887,-0.1916,-0.194,-0.197,-0.2007,-0.203,-0.202,-0.2072,-0.2074,-0.2107,-0.2119,-0.2117,-0.2111,-0.2114,-0.2146,-0.2149,-0.2153,-0.215,-0.2154,-0.211,-0.211,-0.211,-0.2109,0,-0.1809,-0.1826,-0.184,-0.1885,-0.1914,-0.194,-0.1982,-0.202,-0.2045,-0.2074,-0.2119,-0.2122,-0.2148,-0.2157,-0.2149,-0.2183,-0.2168,-0.2154,-0.213,-0.2161,-0.2156,-0.2159,-0.2113,-0.2112,-0.2111,-0.2111,0,0,-0.1775,-0.1838,-0.1841,-0.1871,-0.1926,-0.1956,-0.2008,-0.2064,-0.2107,-0.2139,-0.2182,-0.2212,-0.2214,-0.2222,-0.2216,-0.222,-0.2238,-0.2198,-0.2197,-0.2192,-0.2241,-0.2173,-0.217,-0.2223,-0.2224,-0.2225,-0.2226,0,-0.1778,-0.1821,-0.1859,-0.1911,-0.1936,-0.1993,-0.2041,-0.2099,-0.2145,-0.2197,-0.2214,-0.2248,-0.2238,-0.2244,-0.225,-0.2246,-0.2248,-0.2239,-0.2215,-0.2215,-0.2148,-0.2172,-0.1984,-0.1964,-0.2229,-0.2229,-0.2229,0,-0.1775,-0.1808,-0.1845,-0.193,-0.1949,-0.1992,-0.2084,-0.213,-0.2207,-0.224,-0.2277,-0.2291,-0.2315,-0.229,-0.23,-0.2292,-0.2274,-0.2263,-0.2263,-0.2192,-0.2153,-0.1977,-0.1959,-0.2234,-0.2234,-0.2234,-0.2233,0,-0.173,-0.1805,-0.1834,-0.186,-0.1951,-0.1997,-0.2055,-0.2141,-0.2188,-0.226,-0.2293,-0.2327,-0.2333,-0.233,-0.2314,-0.2307,-0.2311,-0.2295,-0.222,-0.2215,-0.2047,-0.2026,-0.23,-0.23,-0.23,-0.23,-0.23,0,-0.1711,-0.1741,-0.1822,-0.184,-0.1906,-0.1974,-0.2047,-0.2121,-0.2197,-0.2238,-0.2299,-0.2321,-0.2341,-0.2346,-0.2328,-0.2282,-0.232,-0.2233,-0.2213,-0.2053,-0.2033,-0.2262,-0.2258,-0.23,-0.23,-0.23,-0.23,0,-0.1649,-0.1696,-0.1747,-0.1845,-0.1881,-0.1927,-0.2043,-0.2089,-0.2173,-0.2223,-0.2242,-0.2316,-0.2321,-0.2336,-0.2327,-0.2286,-0.2259,-0.223,-0.204,-0.1999,-0.2159,-0.2156,-0.2153,-0.2151,-0.2149,-0.2147,-0.2146,0,-0.1623,-0.1634,-0.1732,-0.1766,-0.1815,-0.1892,-0.1938,-0.2055,-0.2099,-0.2204,-0.2213,-0.226,-0.2256,-0.2239,-0.2179,-0.2138,-0.2209,-0.1945,-0.1903,-0.2164,-0.2145,-0.2146,-0.2146,-0.1692,-0.1687,-0.1683,-0.168,0,-0.1574,-0.1603,-0.1637,-0.17,-0.1762,-0.1821,-0.1901,-0.1933,-0.2039,-0.2083,-0.2119,-0.2128,-0.2123,-0.1989,-0.1952,-0.1903,-0.194,-0.1861,-0.2174,-0.1763,-0.173,-0.1712,-0.1727,-0.1644,-0.1647,-0.165,-0.1652,-0.1653,-0.1526,-0.1547,-0.1585,-0.1635,-0.1692,-0.1721,-0.1722,-0.1792,-0.1826,-0.1845,-0.1937,-0.1887,-0.1877,-0.1719,-0.1641,-0.1586,-0.1725,-0.1639,-0.1651,-0.1667,-0.1618,-0.1584,-0.1461,-0.1463,-0.1465,-0.1467,-0.1469,0,-0.1468,-0.1492,-0.1525,-0.1567,-0.1562,-0.1631,-0.1664,-0.1624,-0.1597,-0.1637,-0.1635,-0.1472,-0.1386,-0.1401,-0.1249,-0.1227,-0.121,-0.1182,-0.1148,-0.1184,-0.1217,-0.1145,-0.0861,-0.086,-0.0858,-0.0857,0,0,-0.1445,-0.1434,-0.1445,-0.1411,-0.143,-0.1374,-0.1356,-0.1316,-0.1306,-0.1238,-0.1205,-0.1295,-0.1339,-0.1089,-0.1035,-0.0922,-0.1044,-0.0877,-0.136,-0.1354,-0.1384,-0.1473,-0.1402,0,0,0,0,0]},{"header":{"parameterUnit":"m.s-1","parameterCategory":2,"la1":30.2991,"la2":30.254,"lo1":-89.0895,"lo2":-89.0444,"dy":0.0017,"dx":0.0017,"nx":28,"ny":28,"refTime":"2024-03-16T03:00:00:Z","depth":"2","parameterNumber":3,"parameterNumberName":"V-component_of_CURRENTS"},"data":[0,0,0,0,0,0,0,0,0,0,0,0,0,0,0,0,0,0,0,0,0,0,0,0,0,0,0,0,0,0,0,0,0,0,0,0,0,0,0,0,0,0,0,0,0,0,0,0,0,0,0,0,0,0,0,0,0,0,-0.0052,-0.0051,0,0.0018,0.0019,0.002,0.0054,0.0054,0.0054,0.0054,0.0154,0.0157,0.0159,0,0,0,0,0,0,0,0,0,0,0,0,0,-0.0138,-0.0137,-0.0052,-0.0051,-0.005,0.0018,0.0019,0.002,0.0054,0.0054,0.0054,0.0055,0.0153,0.0156,0.0159,0,0,0,0,0,0,0,0,0,0,0,0,0,-0.0089,-0.0136,-0.0052,-0.0023,-0.002,0.0018,0.0019,0.002,0.0054,0.0054,0.0054,0.0055,0.0152,0.0156,0.016,0.0178,0,0,0.0171,0.0173,0,0,0,0,0,0,0,0,-0.0092,-0.0086,-0.0029,-0.0025,-0.0021,0.0029,0.0025,0.0075,0.0054,0.0024,0.0054,0.0055,0.0116,0.0123,0.0133,0.0183,0.0187,0.0172,0.0174,0.0175,0.0177,0,0,0,0,0,0,0,-0.0095,-0.0089,-0.0026,-0.0027,-0.0023,-0.0007,-0.0001,0.0035,0.0067,0.0027,0.003,0.004,0.0118,0.0129,0.0135,0.0189,0.0171,0.0175,0.0177,0.0179,0.0268,0.0269,0,0,0,0,0,0,-0.0102,-0.0092,-0.0028,-0.0024,-0.0055,-0.0006,0.0002,0.0011,0.0066,0.0075,0.004,0.0042,0.0122,0.0131,0.0139,0.016,0.0175,0.0179,0.0181,0.0268,0.0269,0.0269,0,0,0,0,0,0,-0.0104,-0.0097,-0.0031,-0.0055,-0.0045,-0.0005,0.0006,0.0013,0.0021,0.0076,0.0085,0.0042,0.0123,0.0134,0.0171,0.0164,0.0181,0.0184,0.0268,0.0268,0.0269,0.0205,0,0,0,0,0,0,-0.0107,-0.0098,-0.01,-0.0055,-0.0044,-0.0017,0.0006,0.0014,0.0028,0.0031,0.0081,0.0091,0.0124,0.0165,0.0175,0.017,0.0187,0.0268,0.0268,0.0269,0.0207,0.0203,0.0199,0,0,0,0,0,-0.011,-0.0112,-0.01,-0.0092,-0.0045,-0.0017,-0.0011,0.0018,0.0028,0.0027,0.0067,0.0089,0.0174,0.0169,0.018,0.0175,0.0268,0.0268,0.0268,0.0208,0.0203,0.0199,0,0,0,0,0,0,-0.0148,-0.0107,-0.0093,-0.0082,-0.0056,-0.0011,-0.001,0.0012,0.0041,0.0043,0.0094,0.0106,0.0134,0.0167,0.016,0.0203,0.0223,0.0226,0.0174,0.017,0.0166,0.0148,0.019,0,0,0,0,0,-0.0158,-0.0152,-0.0108,-0.0102,-0.0092,-0.0053,-0.004,-0.002,0.0016,0.0028,0.0065,0.0107,0.0144,0.0166,0.02,0.0227,0.026,0.0232,0.0228,0.0225,0.0219,0.0266,0.0265,0.027,0.027,0.027,0,0,-0.0172,-0.0148,-0.0145,-0.0111,-0.009,-0.0082,-0.0046,-0.0031,-0.0023,0.0036,0.0052,0.0093,0.0148,0.0175,0.019,0.0202,0.0241,0.0225,0.0222,0.0218,0.0266,0.0266,0.0265,0.027,0.027,0.027,0,0,-0.02,-0.0177,-0.0184,-0.0165,-0.0135,-0.0109,-0.0108,-0.0067,-0.0051,-0.0024,0.0019,0.0058,0.011,0.0151,0.0179,0.0178,0.0216,0.0186,0.0157,0.0202,0.0202,0.0202,0.0238,0.0242,0.0188,0.0187,0.0187,0,-0.022,-0.0219,-0.0183,-0.0183,-0.0175,-0.0126,-0.0134,-0.0106,-0.0059,-0.0045,-0.0029,0.0054,0.0099,0.0143,0.0143,0.0169,0.0196,0.0166,0.0196,0.0197,0.0198,0.0235,0.024,0.0184,0.0185,0.0185,0.0185,0,-0.0252,-0.0251,-0.0255,-0.024,-0.0227,-0.0225,-0.0182,-0.0167,-0.014,-0.0107,-0.0066,0.0001,0.0051,0.0073,0.0109,0.0141,0.0157,0.0181,0.0202,0.0194,0.0233,0.024,0.018,0.0181,0.0182,0.0183,0,0,-0.0292,-0.0282,-0.0283,-0.0295,-0.0259,-0.0256,-0.024,-0.0212,-0.0205,-0.0152,-0.0134,-0.0062,-0.0023,0.0011,0.0065,0.0109,0.0145,0.0142,0.0146,0.0167,0.0236,0.0264,0.0274,0.017,0.0171,0.0172,0.0257,0,-0.033,-0.0355,-0.0333,-0.036,-0.0371,-0.0328,-0.032,-0.0286,-0.0245,-0.0213,-0.0135,-0.0098,-0.0046,-0.0023,0.0029,0.0118,0.0159,0.0119,0.0249,0.0253,0.0271,0.0282,0.0251,0.0327,0.0264,0.0265,0.0266,0,-0.0364,-0.0379,-0.0413,-0.0428,-0.0429,-0.0436,-0.0421,-0.0404,-0.0335,-0.0303,-0.0242,-0.0177,-0.0097,-0.0058,0.0083,0.0053,0.0133,0.0201,0.0206,0.0259,0.0293,0.0328,0.0341,0.0277,0.0276,0.0276,0.0275,0,-0.041,-0.0436,-0.0471,-0.0473,-0.0473,-0.0488,-0.0485,-0.0435,-0.0427,-0.0356,-0.0339,-0.0232,-0.0177,-0.0064,0.0083,0.0081,0.0236,0.0255,0.0355,0.0357,0.0371,0.0374,0.0344,0.0344,0.0344,0.0344,0.0344,0,-0.0449,-0.0478,-0.0503,-0.0521,-0.0579,-0.0548,-0.0582,-0.0556,-0.051,-0.05,-0.0392,-0.0355,-0.0178,-0.0062,0.0065,0.0233,0.0226,0.035,0.0384,0.0348,0.0348,0.0337,0.0335,0.0347,0.0346,0.0346,0.0345,0,-0.0479,-0.049,-0.0548,-0.0583,-0.06,-0.0641,-0.0666,-0.0678,-0.0622,-0.0601,-0.0583,-0.0442,-0.0283,-0.0103,0.0096,0.021,0.0366,0.0423,0.0366,0.0392,0.0458,0.0452,0.054,0.0542,0.0543,0.0545,0.0546,0,-0.0497,-0.0525,-0.0605,-0.0661,-0.0685,-0.0737,-0.0768,-0.074,-0.074,-0.0653,-0.0643,-0.0488,-0.036,-0.0054,0.0171,0.0404,0.0406,0.05,0.0497,0.0455,0.048,0.0471,0.0463,0.0489,0.049,0.049,0.049,0,-0.0535,-0.0565,-0.0612,-0.0737,-0.0805,-0.0865,-0.0898,-0.0912,-0.0856,-0.0809,-0.0712,-0.06,-0.0302,-0.0033,0.027,0.0395,0.0463,0.0516,0.0499,0.0442,0.0414,0.0435,0.0428,0.0494,0.0494,0.0493,0.0493,0.0493,-0.0565,-0.0633,-0.0713,-0.0826,-0.0905,-0.097,-0.0999,-0.0996,-0.0976,-0.0872,-0.077,-0.0568,-0.0313,0.0129,0.0341,0.0534,0.0527,0.0577,0.0573,0.0569,0.0546,0.0522,0.0617,0.0617,0.0617,0.0618,0.0618,0,-0.0609,-0.0691,-0.0803,-0.0931,-0.1015,-0.1038,-0.1068,-0.1051,-0.1006,-0.088,-0.075,-0.0458,-0.0151,0.0115,0.0432,0.0617,0.0596,0.0637,0.0579,0.0574,0.057,0.0544,0.0617,0.0618,0.0618,0.0619,0,0,-0.0642,-0.0749,-0.0819,-0.099,-0.1073,-0.1135,-0.114,-0.1081,-0.0981,-0.0832,-0.0672,-0.0471,-0.014,0.0084,0.0315,0.0484,0.0477,0.049,0.0469,0.0367,0.0361,0.0511,0.0464,0,0,0,0,0]}],[{"header":{"parameterUnit":"m.s-1","parameterCategory":2,"la1":30.2991,"la2":30.254,"lo1":-89.0895,"lo2":-89.0444,"dy":0.0017,"dx":0.0017,"nx":28,"ny":28,"refTime":"2024-03-16T03:00:00:Z","depth":"4","parameterNumber":2,"parameterNumberName":"U-component_of_CURRENTS"},"data":[0,0,0,0,0,0,0,0,0,0,0,0,0,0,0,0,0,0,0,0,0,0,0,0,0,0,0,0,0,0,0,0,0,0,0,0,0,0,0,0,0,0,0,0,0,0,0,0,0,0,0,0,0,0,0,0,0,0,-0.1119,-0.112,0,-0.1173,-0.1173,-0.1174,-0.1199,-0.1199,-0.12,-0.12,-0.1239,-0.124,-0.1241,0,0,0,0,0,0,0,0,0,0,0,0,0,-0.1021,-0.1022,-0.1119,-0.112,-0.1121,-0.1173,-0.1173,-0.1174,-0.1199,-0.1199,-0.12,-0.12,-0.1239,-0.124,-0.1241,0,0,0,0,0,0,0,0,0,0,0,0,0,-0.1065,-0.1023,-0.1119,-0.1142,-0.1145,-0.1173,-0.1173,-0.1174,-0.1199,-0.1199,-0.12,-0.12,-0.1238,-0.124,-0.1241,-0.1242,0,0,-0.1245,-0.1245,0,0,0,0,0,0,0,0,-0.1063,-0.1068,-0.1138,-0.1141,-0.1144,-0.1182,-0.1153,-0.1197,-0.1199,-0.1176,-0.12,-0.12,-0.122,-0.1223,-0.1229,-0.1243,-0.1245,-0.1245,-0.1246,-0.1246,-0.1246,0,0,0,0,0,0,0,-0.1059,-0.1066,-0.1138,-0.1139,-0.1143,-0.1144,-0.115,-0.1161,-0.1193,-0.1178,-0.118,-0.1191,-0.1221,-0.1227,-0.123,-0.1246,-0.1245,-0.1246,-0.1247,-0.1247,-0.1323,-0.1324,0,0,0,0,0,0,-0.1059,-0.1063,-0.1136,-0.114,-0.1106,-0.1145,-0.1153,-0.1167,-0.1193,-0.1198,-0.119,-0.1192,-0.1225,-0.1228,-0.1231,-0.129,-0.1246,-0.1247,-0.1248,-0.1321,-0.1323,-0.1324,0,0,0,0,0,0,-0.1057,-0.1065,-0.1134,-0.1104,-0.1114,-0.1147,-0.1163,-0.1168,-0.1195,-0.1203,-0.1208,-0.1215,-0.1225,-0.1229,-0.1261,-0.1289,-0.1248,-0.1249,-0.132,-0.1322,-0.1324,-0.1371,0,0,0,0,0,0,-0.1054,-0.1064,-0.1084,-0.1105,-0.1116,-0.1164,-0.1163,-0.1169,-0.1201,-0.1204,-0.1226,-0.1229,-0.1226,-0.1259,-0.1262,-0.129,-0.125,-0.1318,-0.1321,-0.1323,-0.1368,-0.1374,-0.138,0,0,0,0,0,-0.105,-0.1072,-0.1085,-0.1094,-0.1139,-0.1165,-0.1171,-0.1193,-0.1202,-0.1218,-0.1235,-0.1229,-0.1276,-0.1261,-0.1264,-0.1294,-0.1317,-0.132,-0.1323,-0.1365,-0.1373,-0.138,0,0,0,0,0,0,-0.1042,-0.1077,-0.1092,-0.1125,-0.1151,-0.1171,-0.1189,-0.1206,-0.1231,-0.1239,-0.1243,-0.1248,-0.1284,-0.1283,-0.1267,-0.1323,-0.1297,-0.13,-0.1328,-0.1335,-0.1341,-0.1348,-0.1251,0,0,0,0,0,-0.105,-0.1072,-0.1106,-0.1132,-0.1146,-0.1172,-0.119,-0.1208,-0.123,-0.1242,-0.126,-0.1278,-0.1295,-0.1311,-0.1322,-0.1354,-0.1361,-0.1376,-0.1382,-0.1387,-0.1396,-0.1442,-0.1453,-0.1334,-0.1334,-0.1334,0,0,-0.1053,-0.1075,-0.109,-0.1131,-0.115,-0.1177,-0.1183,-0.1217,-0.1246,-0.1242,-0.1288,-0.1298,-0.1307,-0.1341,-0.1359,-0.1348,-0.1423,-0.1391,-0.1395,-0.1401,-0.1446,-0.1458,-0.1468,-0.1336,-0.1335,-0.1335,0,0,-0.1059,-0.1092,-0.111,-0.1134,-0.1173,-0.1193,-0.1209,-0.1246,-0.1271,-0.1312,-0.1318,-0.1351,-0.1376,-0.1395,-0.1404,-0.1451,-0.1449,-0.1456,-0.1498,-0.1543,-0.1553,-0.1562,-0.1574,-0.1584,-0.1463,-0.1464,-0.1464,0,-0.1063,-0.1094,-0.112,-0.1142,-0.1169,-0.1203,-0.1232,-0.1262,-0.1307,-0.1337,-0.1333,-0.1397,-0.1402,-0.1454,-0.1468,-0.1466,-0.148,-0.1468,-0.1551,-0.156,-0.1569,-0.1579,-0.1589,-0.1466,-0.1466,-0.1466,-0.1465,0,-0.1076,-0.111,-0.1122,-0.1164,-0.1197,-0.1226,-0.1273,-0.1314,-0.1349,-0.1381,-0.1446,-0.1461,-0.1502,-0.151,-0.1501,-0.1569,-0.1555,-0.1549,-0.1532,-0.1584,-0.1591,-0.1601,-0.147,-0.1469,-0.1468,-0.1468,0,0,-0.1055,-0.1119,-0.1125,-0.1154,-0.1214,-0.1241,-0.1299,-0.1363,-0.1412,-0.1459,-0.1526,-0.1557,-0.1578,-0.1591,-0.1597,-0.1636,-0.1698,-0.1622,-0.1623,-0.1633,-0.1782,-0.1633,-0.1629,-0.1713,-0.1715,-0.1717,-0.1758,0,-0.1058,-0.1101,-0.1141,-0.1194,-0.1222,-0.1281,-0.1331,-0.1397,-0.1454,-0.1527,-0.1571,-0.1626,-0.1607,-0.1635,-0.1674,-0.1695,-0.1729,-0.1686,-0.1731,-0.1732,-0.1593,-0.1637,-0.1724,-0.1765,-0.1767,-0.1769,-0.177,0,-0.1053,-0.1085,-0.1133,-0.1216,-0.1236,-0.1277,-0.1375,-0.143,-0.1534,-0.1579,-0.1652,-0.169,-0.1759,-0.1735,-0.1806,-0.1782,-0.1787,-0.1796,-0.1798,-0.165,-0.1602,-0.1706,-0.1788,-0.1786,-0.1785,-0.1784,-0.1783,0,-0.101,-0.1085,-0.1124,-0.1148,-0.124,-0.1283,-0.1344,-0.1444,-0.1505,-0.1621,-0.168,-0.1761,-0.1813,-0.1848,-0.1856,-0.1847,-0.1922,-0.1911,-0.1781,-0.177,-0.1871,-0.1861,-0.1965,-0.1965,-0.1965,-0.1964,-0.1964,0,-0.0987,-0.1024,-0.1108,-0.1125,-0.1184,-0.1264,-0.1347,-0.1416,-0.1533,-0.1609,-0.1705,-0.1767,-0.1849,-0.1897,-0.1893,-0.1853,-0.195,-0.1792,-0.1776,-0.1887,-0.1878,-0.1877,-0.1866,-0.1966,-0.1966,-0.1965,-0.1965,0,-0.0929,-0.0984,-0.1031,-0.1126,-0.1159,-0.1202,-0.1334,-0.1395,-0.1512,-0.162,-0.1662,-0.1791,-0.184,-0.1888,-0.1941,-0.188,-0.1868,-0.1829,-0.1931,-0.192,-0.1679,-0.1671,-0.1699,-0.1694,-0.169,-0.1686,-0.1684,0,-0.0899,-0.0914,-0.1008,-0.1036,-0.1079,-0.1162,-0.1219,-0.1355,-0.1428,-0.1613,-0.1656,-0.1759,-0.1823,-0.1778,-0.1828,-0.1807,-0.1781,-0.1763,-0.173,-0.1673,-0.1656,-0.1654,-0.1651,-0.1677,-0.1676,-0.1675,-0.1674,0,-0.0836,-0.0874,-0.0912,-0.0961,-0.1018,-0.1089,-0.1189,-0.1239,-0.1406,-0.1528,-0.1601,-0.1632,-0.1682,-0.1695,-0.1681,-0.1667,-0.1771,-0.172,-0.1729,-0.1698,-0.1647,-0.1634,-0.1636,-0.166,-0.1662,-0.1663,-0.1664,0,-0.0784,-0.0792,-0.084,-0.0879,-0.095,-0.1003,-0.107,-0.1162,-0.1248,-0.1461,-0.1471,-0.1575,-0.1671,-0.1622,-0.1613,-0.1579,-0.1556,-0.1504,-0.1523,-0.154,-0.1463,-0.1374,-0.1295,0,0,0,0,0,-0.0725,-0.0731,-0.0759,-0.0804,-0.0873,-0.0913,-0.1048,-0.1128,-0.13,-0.1309,-0.139,-0.1425,-0.1429,-0.1475,-0.1403,-0.153,-0.1554,-0.144,-0.1503,-0.1582,-0.1598,-0.152,0,0,0,0,0,0,-0.0692,-0.0712,-0.0726,-0.0733,-0.0752,-0.0821,-0.0904,-0.1014,-0.1039,-0.1206,-0.1211,-0.1315,-0.1331,-0.1434,-0.1363,-0.1373,-0.138,-0.1494,-0.149,-0.1573,-0.1587,-0.16,-0.1526,0,0,0,0,0]},{"header":{"parameterUnit":"m.s-1","parameterCategory":2,"la1":30.2991,"la2":30.254,"lo1":-89.0895,"lo2":-89.0444,"dy":0.0017,"dx":0.0017,"nx":28,"ny":28,"refTime":"2024-03-16T03:00:00:Z","depth":"4","parameterNumber":3,"parameterNumberName":"V-component_of_CURRENTS"},"data":[0,0,0,0,0,0,0,0,0,0,0,0,0,0,0,0,0,0,0,0,0,0,0,0,0,0,0,0,0,0,0,0,0,0,0,0,0,0,0,0,0,0,0,0,0,0,0,0,0,0,0,0,0,0,0,0,0,0,0.0052,0.0052,0,0.0091,0.0092,0.0092,0.0129,0.0129,0.0129,0.013,0.0195,0.0196,0.0197,0,0,0,0,0,0,0,0,0,0,0,0,0,0.0041,0.0041,0.0052,0.0052,0.0053,0.0091,0.0092,0.0092,0.0129,0.0129,0.0129,0.013,0.0194,0.0196,0.0197,0,0,0,0,0,0,0,0,0,0,0,0,0,0.006,0.0041,0.0052,0.0075,0.0077,0.0091,0.0092,0.0092,0.0128,0.0129,0.013,0.013,0.0194,0.0196,0.0198,0.0199,0,0,0.0204,0.0205,0,0,0,0,0,0,0,0,0.0059,0.0061,0.0071,0.0073,0.0076,0.0105,0.0112,0.0129,0.0128,0.011,0.013,0.013,0.0166,0.017,0.0177,0.0202,0.0205,0.0204,0.0205,0.0206,0.0207,0,0,0,0,0,0,0,0.0058,0.0059,0.0068,0.0071,0.0074,0.0094,0.0097,0.0115,0.0135,0.0112,0.0114,0.0117,0.0168,0.0175,0.0179,0.0206,0.0204,0.0206,0.0207,0.0208,0.0255,0.0255,0,0,0,0,0,0,0.0049,0.0058,0.0067,0.0069,0.0068,0.0094,0.0097,0.0096,0.0135,0.0141,0.0116,0.0118,0.0171,0.0177,0.0182,0.0194,0.0206,0.0208,0.0209,0.0255,0.0255,0.0255,0,0,0,0,0,0,0.0048,0.0049,0.0065,0.0064,0.0068,0.0093,0.0091,0.0096,0.0106,0.0138,0.0145,0.0121,0.0172,0.0179,0.0198,0.0197,0.0209,0.0211,0.0255,0.0255,0.0255,0.0214,0,0,0,0,0,0,0.0048,0.0048,0.0044,0.0063,0.0067,0.007,0.0091,0.0096,0.0106,0.0109,0.0144,0.0151,0.0173,0.0194,0.02,0.02,0.0213,0.0255,0.0255,0.0255,0.0215,0.0213,0.021,0,0,0,0,0,0.0047,0.0037,0.0043,0.0045,0.006,0.0069,0.0073,0.0094,0.0106,0.0106,0.0131,0.015,0.0199,0.0196,0.0202,0.0203,0.0255,0.0255,0.0255,0.0217,0.0213,0.021,0,0,0,0,0,0,0.0028,0.0041,0.0048,0.0042,0.0053,0.0075,0.0076,0.0091,0.011,0.0114,0.0147,0.0155,0.0172,0.0192,0.0189,0.0217,0.0231,0.0232,0.0199,0.0197,0.0194,0.0182,0.0214,0,0,0,0,0,0.0021,0.0021,0.0034,0.003,0.0032,0.0053,0.006,0.0073,0.0092,0.0101,0.0126,0.0153,0.0176,0.019,0.0211,0.0224,0.0247,0.023,0.0228,0.0225,0.0221,0.0256,0.0256,0.0255,0.0255,0.0255,0,0,0.0015,0.002,0.0021,0.0027,0.0037,0.0034,0.0059,0.0063,0.0066,0.0105,0.0116,0.0143,0.0177,0.0193,0.0203,0.0211,0.0238,0.0225,0.0223,0.022,0.0256,0.0256,0.0256,0.0255,0.0255,0.0255,0,0,-0.0002,0.0003,-0.0005,-0.0,0.0008,0.002,0.0019,0.0037,0.005,0.0062,0.0093,0.0118,0.0149,0.0176,0.0193,0.0189,0.0222,0.0198,0.0177,0.0211,0.0212,0.0212,0.0239,0.0243,0.0199,0.0198,0.0198,0,-0.001,-0.002,-0.0005,-0.0015,-0.0017,0.001,-0.0004,0.0013,0.0037,0.0045,0.0059,0.011,0.0141,0.0165,0.0168,0.0183,0.0206,0.0185,0.0207,0.0208,0.021,0.0238,0.0242,0.0196,0.0197,0.0197,0.0197,0,-0.0032,-0.0041,-0.0047,-0.005,-0.0053,-0.0057,-0.0042,-0.0035,-0.0017,0.0004,0.0029,0.0071,0.0101,0.0119,0.0144,0.0168,0.0182,0.0198,0.0213,0.0207,0.0237,0.0242,0.0194,0.0194,0.0195,0.0195,0,0,-0.0045,-0.0059,-0.0062,-0.0078,-0.0073,-0.0082,-0.008,-0.0072,-0.0073,-0.0036,-0.0031,0.0022,0.0048,0.007,0.0107,0.0143,0.0175,0.0172,0.0174,0.0193,0.0247,0.0231,0.0236,0.0196,0.0197,0.0197,0.0263,0,-0.0065,-0.0097,-0.0096,-0.0128,-0.0147,-0.0133,-0.0141,-0.0129,-0.0106,-0.0092,-0.0037,-0.0016,0.0029,0.0041,0.0085,0.0151,0.0187,0.0155,0.0253,0.0256,0.0239,0.024,0.0199,0.0267,0.0268,0.0269,0.027,0,-0.0088,-0.0109,-0.0144,-0.0181,-0.019,-0.0203,-0.0217,-0.0218,-0.0185,-0.0167,-0.0128,-0.0084,-0.0027,0.0009,0.012,0.0098,0.0166,0.0221,0.0225,0.0228,0.025,0.0276,0.0279,0.0278,0.0278,0.0277,0.0276,0,-0.0108,-0.0147,-0.0179,-0.0188,-0.0218,-0.0235,-0.025,-0.0238,-0.0249,-0.021,-0.0211,-0.0132,-0.0098,-0.0003,0.0114,0.0118,0.0237,0.0255,0.0306,0.0306,0.0318,0.0317,0.0331,0.0331,0.033,0.033,0.033,0,-0.0127,-0.0156,-0.0194,-0.0208,-0.0267,-0.0273,-0.0318,-0.0313,-0.031,-0.0325,-0.0252,-0.024,-0.0099,-0.0013,0.0096,0.0213,0.0224,0.03,0.0321,0.0299,0.0295,0.0322,0.032,0.0333,0.0332,0.0332,0.0331,0,-0.0135,-0.0155,-0.0203,-0.025,-0.0275,-0.0315,-0.0377,-0.0405,-0.0391,-0.0407,-0.04,-0.0313,-0.0201,-0.0061,0.0101,0.0179,0.0298,0.0339,0.0298,0.0317,0.0349,0.0345,0.0394,0.0394,0.0394,0.0394,0.0394,0,-0.0137,-0.0157,-0.0235,-0.0286,-0.0309,-0.0375,-0.0427,-0.0443,-0.0468,-0.0452,-0.046,-0.0361,-0.0288,-0.0071,0.0078,0.0275,0.0307,0.036,0.0362,0.0339,0.0356,0.0351,0.0347,0.0394,0.0394,0.0394,0.0394,0,-0.0138,-0.0164,-0.0207,-0.0316,-0.0387,-0.0468,-0.0531,-0.0559,-0.0572,-0.056,-0.0502,-0.0388,-0.0261,-0.0079,0.0075,0.0217,0.0319,0.0361,0.0362,0.0364,0.034,0.0355,0.0351,0.0394,0.0394,0.0394,0.0394,0,-0.0141,-0.0177,-0.0246,-0.0349,-0.0447,-0.0537,-0.0571,-0.0599,-0.0619,-0.0585,-0.0563,-0.0415,-0.0317,-0.011,0.003,0.0169,0.0205,0.0244,0.0252,0.0254,0.0195,0.0143,0.0152,0,0,0,0,0,-0.014,-0.019,-0.0282,-0.0401,-0.0503,-0.056,-0.0635,-0.0656,-0.0665,-0.0629,-0.0593,-0.0469,-0.0253,-0.0155,-0.0018,0.0021,0.0217,0.0183,0.0264,0.0394,0.0394,0.0347,0,0,0,0,0,0,-0.0146,-0.0215,-0.0276,-0.0429,-0.0515,-0.0624,-0.0672,-0.068,-0.0653,-0.0628,-0.0506,-0.0438,-0.022,-0.032,-0.0011,0.0029,0.0095,0.0291,0.0293,0.0394,0.0394,0.0394,0.0346,0,0,0,0,0]}]]